Goldsboro, NC

11:18 AM EDT on October 19, 2019 (GMT -0400)
Goldsboro-Wayne Municipal

Weather History for KGWW - September, 2019

Change the Weather History Date:

Tuesday, September 17, 2019

  Actual Average (WUND) Record (WUND)
Temperature  
Mean Temperature 75 °F -  
Max Temperature 86 °F - - (-1)
Min Temperature 64 °F - - (-1)
Cooling Degree Days 10    
Growing Degree Days 25 (Base 50)    
Moisture  
Dew Point 68 °F    
Average Humidity 86    
Maximum Humidity 100    
Minimum Humidity 55    
Precipitation  
Precipitation 0.01 in - - ()
Sea Level Pressure  
Sea Level Pressure 29.99 in    
Wind  
Wind Speed 3 mph (NE)    
Max Wind Speed 12 mph    
Max Gust Speed 21 mph    
Visibility 8 miles    
Events Fog    
Averages and records for this station are not official NWS values.
T = Trace of Precipitation, MM = Missing Value Source: NWS Daily Summary

Daily Weather History Graph

Daily Weather History Graph

Search for Another Location

Airport or City:

Astronomy

Sep. 17, 2019 Rise Set
Actual Time 6:55 AM EDT 7:16 PM EDT
Civil Twilight 6:30 AM EDT 7:41 PM EDT
Nautical Twilight 6:00 AM EDT 8:11 PM EDT
Astronomical Twilight 5:30 AM EDT 8:41 PM EDT
Moon 9:24 PM EDT (9/17) 9:53 AM EDT (9/17)
Length of Visible Light 13h 11m
Length of Day
12h 20m
Waning Gibbous, 89% of the Moon is Illuminated
Sep 17
Waning Gibbous
Sep 21
Last Quarter
Sep 28
New
Oct 5
First Quarter
Oct 13
Full

Hourly Weather History & Observations

Time (EDT) Temp. Heat Index Dew Point Humidity Pressure Visibility Wind Dir Wind Speed Gust Speed Precip Events Conditions
12:15 AM 67.8 °F - 67.8 °F 100% 29.98 in 7.0 mi Calm Calm - N/A   Clear
12:35 AM 70.0 °F - 70.0 °F 100% 29.98 in 10.0 mi Calm Calm - N/A   Clear
12:55 AM 68.4 °F - 68.4 °F 100% 29.98 in 10.0 mi Calm Calm - N/A   Clear
1:15 AM 67.1 °F - 67.1 °F 100% 29.97 in 7.0 mi Calm Calm - N/A   Clear
1:35 AM 67.5 °F - 67.5 °F 100% 29.97 in 7.0 mi Calm Calm - N/A   Clear
1:55 AM 68.0 °F - 68.0 °F 100% 29.97 in 7.0 mi Calm Calm - N/A   Clear
2:15 AM 67.1 °F - 67.1 °F 100% 29.96 in 5.0 mi Calm Calm - N/A   Clear
2:35 AM 66.6 °F - 66.6 °F 100% 29.96 in 7.0 mi Calm Calm - N/A   Clear
2:55 AM 66.2 °F - 66.2 °F 100% 29.96 in 5.0 mi Calm Calm - N/A   Clear
3:15 AM 66.2 °F - 66.2 °F 100% 29.95 in 4.0 mi Calm Calm - N/A   Clear
3:35 AM 66.2 °F - 66.2 °F 100% 29.95 in 3.0 mi Calm Calm - N/A   Clear
3:55 AM 64.8 °F - 64.8 °F 100% 29.95 in 0.5 mi Calm Calm - N/A Fog Fog
4:15 AM 65.7 °F - 65.7 °F 100% 29.94 in 4.0 mi Calm Calm - N/A   Clear
4:35 AM 66.2 °F - 66.2 °F 100% 29.94 in 5.0 mi Calm Calm - N/A   Clear
4:55 AM 66.4 °F - 66.4 °F 100% 29.94 in 4.0 mi Calm Calm - N/A   Clear
5:15 AM 66.4 °F - 66.4 °F 100% 29.94 in 4.0 mi Calm Calm - N/A   Clear
5:35 AM 65.3 °F - 65.3 °F 100% 29.95 in 1.0 mi Calm Calm - N/A   Mist
5:55 AM 65.5 °F - 65.5 °F 100% 29.95 in 5.0 mi Calm Calm - N/A   Clear
6:15 AM 65.8 °F - 65.8 °F 100% 29.95 in 5.0 mi Calm Calm - N/A   Clear
6:35 AM 66.2 °F - 66.2 °F 100% 29.96 in 5.0 mi NNE 3.5 mph - N/A   Clear
6:55 AM 65.8 °F - 65.8 °F 100% 29.96 in 4.0 mi NNE 3.5 mph - N/A   Clear
7:15 AM 66.2 °F - 66.2 °F 100% 29.98 in 4.0 mi North 3.5 mph - N/A   Clear
7:35 AM 66.2 °F - 66.2 °F 100% 29.98 in 4.0 mi ENE 3.5 mph - N/A   Clear
7:55 AM 67.6 °F - 67.6 °F 100% 29.99 in 4.0 mi NE 3.5 mph - N/A   Clear
8:15 AM 69.1 °F - 69.1 °F 100% 29.99 in 5.0 mi Calm Calm - N/A   Clear
8:35 AM 70.7 °F - 70.7 °F 100% 29.99 in 7.0 mi NE 5.8 mph - N/A   Scattered Clouds
8:55 AM 72.1 °F - 72.1 °F 100% 29.99 in 7.0 mi NE 4.6 mph - N/A   Mostly Cloudy
9:35 AM 72.1 °F - 72.1 °F 100% 30.00 in 7.0 mi ENE 4.6 mph - N/A   Overcast
9:55 AM 72.9 °F - 72.9 °F 100% 30.00 in 10.0 mi ENE 6.9 mph - N/A   Overcast
10:15 AM 73.4 °F - 72.5 °F 97% 30.01 in 10.0 mi ENE 6.9 mph - N/A   Overcast
10:35 AM 76.5 °F - 72.3 °F 87% 30.01 in 10.0 mi NE 6.9 mph - N/A   Overcast
10:55 AM 77.0 °F - 71.6 °F 83% 30.01 in 10.0 mi NE 9.2 mph - N/A   Mostly Cloudy
11:15 AM 77.9 °F - 70.7 °F 78% 30.01 in 10.0 mi ENE 8.1 mph - N/A   Scattered Clouds
11:35 AM 80.1 °F 83.8 °F 71.8 °F 76% 30.01 in 10.0 mi ENE 9.2 mph - N/A   Scattered Clouds
11:55 AM 80.6 °F 84.2 °F 70.9 °F 72% 30.00 in 10.0 mi North 8.1 mph - N/A   Clear
12:15 PM 82.2 °F 86.2 °F 70.3 °F 67% 30.00 in 10.0 mi NNE 9.2 mph - N/A   Clear
12:35 PM 82.6 °F 86.1 °F 69.3 °F 64% 30.00 in 10.0 mi NE 4.6 mph - N/A   Clear
12:55 PM 84.2 °F 86.8 °F 67.1 °F 56% 30.00 in 10.0 mi NE 5.8 mph - N/A   Clear
1:15 PM 83.1 °F 86.6 °F 69.1 °F 62% 29.99 in 10.0 mi NNE 8.1 mph - N/A   Clear
1:35 PM 83.7 °F 87.0 °F 68.4 °F 60% 29.99 in 10.0 mi NNE 8.1 mph - N/A   Clear
1:55 PM 84.0 °F 86.8 °F 67.3 °F 57% 29.99 in 10.0 mi NE 9.2 mph - N/A   Clear
2:15 PM 84.7 °F 88.2 °F 68.4 °F 58% 29.99 in 10.0 mi NE 8.1 mph - N/A   Clear
2:35 PM 85.5 °F 88.5 °F 67.8 °F 55% 29.98 in 10.0 mi ENE 8.1 mph - N/A   Clear
2:55 PM 86.0 °F 89.7 °F 68.9 °F 56% 29.98 in 10.0 mi NNE 9.2 mph - N/A   Scattered Clouds
3:15 PM 84.9 °F 88.2 °F 68.2 °F 57% 29.98 in 10.0 mi NE 5.8 mph 17.3 mph N/A   Mostly Cloudy
3:35 PM 84.4 °F 87.9 °F 68.5 °F 59% 29.98 in 10.0 mi NE 8.1 mph - N/A   Overcast
3:55 PM 83.8 °F 87.0 °F 68.0 °F 59% 29.97 in 10.0 mi NE 8.1 mph - N/A   Mostly Cloudy
4:15 PM 85.5 °F 89.1 °F 68.5 °F 57% 29.97 in 10.0 mi NE 8.1 mph - N/A   Scattered Clouds
4:35 PM 84.6 °F 87.4 °F 67.1 °F 56% 29.97 in 10.0 mi NE 9.2 mph - N/A   Clear
4:55 PM 84.0 °F 86.8 °F 67.3 °F 57% 29.97 in 10.0 mi NE 11.5 mph - N/A   Clear
5:15 PM 84.2 °F 87.3 °F 68.2 °F 58% 29.97 in 10.0 mi NE 10.4 mph - N/A   Mostly Cloudy
5:35 PM 79.9 °F - 67.5 °F 66% 29.98 in 10.0 mi NE 8.1 mph - N/A   Scattered Clouds
5:55 PM 80.1 °F 82.3 °F 66.7 °F 64% 29.98 in 10.0 mi NE 5.8 mph - N/A   Clear
6:15 PM 79.5 °F - 67.1 °F 66% 29.99 in 10.0 mi NE 9.2 mph 17.3 mph N/A   Scattered Clouds
6:35 PM 78.1 °F - 68.0 °F 71% 30.00 in 10.0 mi NE 9.2 mph 16.1 mph N/A   Mostly Cloudy
6:55 PM 77.0 °F - 66.9 °F 71% 30.00 in 10.0 mi NE 10.4 mph 20.7 mph N/A   Mostly Cloudy
7:15 PM 75.7 °F - 67.1 °F 74% 30.02 in 10.0 mi NE 10.4 mph - N/A   Overcast
7:35 PM 71.4 °F - 70.7 °F 98% 30.03 in 7.0 mi North 6.9 mph - N/A   Heavy Drizzle
7:55 PM 70.7 °F - 70.7 °F 100% 30.03 in 7.0 mi North 5.8 mph - 0.01 in   Drizzle
8:15 PM 70.3 °F - 70.3 °F 100% 30.03 in 10.0 mi NNE 3.5 mph - N/A   Overcast
8:35 PM 70.2 °F - 70.2 °F 100% 30.03 in 10.0 mi NNE 4.6 mph - N/A   Overcast
8:55 PM 69.8 °F - 69.8 °F 100% 30.04 in 10.0 mi North 3.5 mph - N/A   Mostly Cloudy
9:15 PM 69.1 °F - 69.1 °F 100% 30.05 in 10.0 mi North 4.6 mph - N/A   Scattered Clouds
9:55 PM 69.1 °F - 68.5 °F 98% 30.05 in 10.0 mi NE 3.5 mph - N/A   Mostly Cloudy
10:15 PM 68.9 °F - 67.5 °F 95% 30.05 in 10.0 mi NE 4.6 mph - N/A   Scattered Clouds
10:35 PM 68.9 °F - 66.6 °F 92% 30.06 in 10.0 mi NE 5.8 mph - N/A   Mostly Cloudy
10:55 PM 68.9 °F - 66.2 °F 91% 30.06 in 10.0 mi NE 3.5 mph - N/A   Overcast
11:15 PM 68.4 °F - 66.7 °F 95% 30.07 in 10.0 mi NE 4.6 mph - N/A   Overcast
11:35 PM 68.2 °F - 65.7 °F 92% 30.06 in 10.0 mi NE 6.9 mph - N/A   Scattered Clouds
11:55 PM 67.1 °F - 66.0 °F 96% 30.07 in 10.0 mi NNE 5.8 mph - N/A   Clear